• In Austria
  • List of Countries
  • For 7 days
  • Water Temperature
  • Satellite Maps
  • Weather Map
  • News
  • Weather Widgets
  • user-avatar
    Login

    Hourly Weather Wien

    Today, 17 August, Friday

    Time Temperature Precipitation Wind Pressure Humidity
    00:00 +20°C° 0 mm 1 mps 744 mmHg 64%
    01:00 +20°C° 0 mm 1 mps 744 mmHg 67%
    02:00 +19°C° 0 mm 1 mps 744 mmHg 68%
    03:00 +19°C° 0 mm 1 mps 744 mmHg 70%
    04:00 +19°C° 0 mm 1 mps 743 mmHg 71%
    05:00 +20°C° 0 mm 1 mps 743 mmHg 69%
    06:00 +21°C° 0 mm 1 mps 743 mmHg 66%
    07:00 +22°C° 0 mm 1 mps 743 mmHg 63%
    08:00 +24°C° 0 mm 1 mps 744 mmHg 57%
    09:00 +26°C° 0 mm 1 mps 744 mmHg 50%
    10:00 +28°C° 0 mm 2 mps 744 mmHg 43%
    11:00 +29°C° 0 mm 2 mps 743 mmHg 40%
    12:00 +30°C° 0 mm 2 mps 743 mmHg 37%
    13:00 +31°C° 0 mm 2 mps 743 mmHg 34%
    14:00 +31°C° 0 mm 1 mps 743 mmHg 33%
    15:00 +31°C° 0 mm 1 mps 743 mmHg 33%
    16:00 +32°C° 0 mm 1 mps 742 mmHg 32%
    17:00 +30°C° 0 mm 1 mps 742 mmHg 38%
    18:00 +27°C° 0 mm 1 mps 742 mmHg 43%
    19:00 +25°C° 0 mm 1 mps 742 mmHg 49%
    20:00 +24°C° 0 mm 1 mps 743 mmHg 51%
    21:00 +24°C° 0 mm 1 mps 743 mmHg 53%
    22:00 +23°C° 0 mm 1 mps 744 mmHg 55%
    23:00 +22°C° 0 mm 1 mps 744 mmHg 57%

    Tomorrow, 18 August, Saturday

    Time Temperature Precipitation Wind Pressure Humidity
    00:00 +22°C° 0 mm 1 mps 744 mmHg 59%
    01:00 +21°C° 0 mm 1 mps 744 mmHg 60%
    02:00 +21°C° 0 mm 1 mps 744 mmHg 62%
    03:00 +20°C° 0 mm 1 mps 744 mmHg 63%
    04:00 +20°C° 0 mm 1 mps 744 mmHg 65%
    05:00 +21°C° 0 mm 1 mps 744 mmHg 63%
    06:00 +22°C° 0 mm 1 mps 745 mmHg 61%
    07:00 +23°C° 0 mm 1 mps 745 mmHg 59%
    08:00 +25°C° 0 mm 1 mps 745 mmHg 54%
    09:00 +27°C° 0 mm 2 mps 745 mmHg 48%
    10:00 +29°C° 0 mm 2 mps 745 mmHg 43%
    11:00 +30°C° 0 mm 2 mps 745 mmHg 40%
    12:00 +31°C° 0 mm 2 mps 745 mmHg 37%
    13:00 +32°C° 0 mm 1 mps 745 mmHg 34%
    14:00 +32°C° 0 mm 1 mps 745 mmHg 34%
    15:00 +32°C° 0 mm 1 mps 744 mmHg 34%
    16:00 +32°C° 0 mm 2 mps 744 mmHg 33%
    17:00 +30°C° 0 mm 2 mps 744 mmHg 39%
    18:00 +28°C° 0 mm 1 mps 745 mmHg 44%
    19:00 +26°C° 0 mm 1 mps 745 mmHg 49%
    20:00 +26°C° 0 mm 2 mps 745 mmHg 52%
    21:00 +25°C° 0 mm 2 mps 745 mmHg 55%
    22:00 +24°C° 0 mm 2 mps 746 mmHg 58%
    23:00 +23°C° 0 mm 2 mps 746 mmHg 61%

    Day after tomorrow, 19 August, Sunday

    Time Temperature Precipitation Wind Pressure Humidity
    00:00 +23°C° 0 mm 2 mps 746 mmHg 64%
    01:00 +21°C° 0 mm 2 mps 746 mmHg 66%
    02:00 +21°C° 0 mm 2 mps 746 mmHg 69%
    03:00 +20°C° 0 mm 2 mps 746 mmHg 71%
    04:00 +20°C° 0 mm 2 mps 746 mmHg 74%
    05:00 +21°C° 0 mm 2 mps 746 mmHg 72%
    06:00 +23°C° 0 mm 2 mps 746 mmHg 70%
    07:00 +23°C° 0 mm 2 mps 747 mmHg 68%
    08:00 +25°C° 0 mm 2 mps 747 mmHg 62%
    09:00 +27°C° 0 mm 2 mps 747 mmHg 55%
    10:00 +29°C° 0 mm 2 mps 747 mmHg 49%
    11:00 +30°C° 0 mm 2 mps 746 mmHg 45%
    12:00 +31°C° 0 mm 2 mps 746 mmHg 42%
    13:00 +32°C° 0 mm 2 mps 746 mmHg 38%
    14:00 +32°C° 0 mm 2 mps 746 mmHg 38%
    15:00 +32°C° 0 mm 2 mps 745 mmHg 38%
    16:00 +32°C° 0 mm 2 mps 745 mmHg 38%
    17:00 +30°C° 0 mm 2 mps 745 mmHg 44%
    18:00 +28°C° 0 mm 2 mps 745 mmHg 50%
    19:00 +26°C° 0 mm 2 mps 745 mmHg 56%
    20:00 +25°C° 0 mm 2 mps 746 mmHg 59%
    21:00 +24°C° 0 mm 2 mps 746 mmHg 63%
    22:00 +24°C° 0 mm 2 mps 746 mmHg 66%
    23:00 +23°C° 0 mm 2 mps 746 mmHg 69%

    20 August, Monday

    Time Temperature Precipitation Wind Pressure Humidity
    00:00 +21°C° 0 mm 2 mps 746 mmHg 71%
    01:00 +21°C° 0 mm 2 mps 746 mmHg 74%
    02:00 +20°C° 0 mm 2 mps 746 mmHg 76%
    03:00 +21°C° 0 mm 1 mps 746 mmHg 78%
    04:00 +21°C° 0 mm 1 mps 746 mmHg 80%
    05:00 +22°C° 0 mm 1 mps 746 mmHg 76%
    06:00 +23°C° 0 mm 1 mps 746 mmHg 73%
    07:00 +23°C° 0 mm 1 mps 746 mmHg 70%
    08:00 +25°C° 0 mm 1 mps 746 mmHg 64%
    09:00 +27°C° 0 mm 1 mps 746 mmHg 57%
    10:00 +29°C° 0 mm 2 mps 746 mmHg 50%
    11:00 +30°C° 0 mm 2 mps 746 mmHg 47%
    12:00 +31°C° 0 mm 2 mps 745 mmHg 44%
    13:00 +32°C° 0 mm 1 mps 745 mmHg 40%
    14:00 +32°C° 0 mm 2 mps 745 mmHg 40%
    15:00 +32°C° 0 mm 2 mps 745 mmHg 39%
    16:00 +32°C° 0 mm 2 mps 744 mmHg 38%
    17:00 +30°C° 0 mm 1 mps 744 mmHg 43%
    18:00 +29°C° 0 mm 1 mps 744 mmHg 48%
    19:00 +27°C° 0 mm 1 mps 744 mmHg 53%
    20:00 +26°C° 0 mm 1 mps 745 mmHg 56%
    21:00 +25°C° 0 mm 1 mps 745 mmHg 58%
    22:00 +24°C° 0 mm 1 mps 745 mmHg 60%
    23:00 +24°C° 0 mm 1 mps 745 mmHg 62%

    21 August, Tuesday

    Time Temperature Precipitation Wind Pressure Humidity
    00:00 +23°C° 0 mm 1 mps 745 mmHg 64%
    01:00 +23°C° 0 mm 1 mps 745 mmHg 65%
    02:00 +22°C° 0 mm 1 mps 745 mmHg 67%
    03:00 +22°C° 0 mm 1 mps 745 mmHg 69%
    04:00 +22°C° 0 mm 1 mps 745 mmHg 71%
    05:00 +23°C° 0 mm 1 mps 746 mmHg 69%
    06:00 +24°C° 0 mm 1 mps 746 mmHg 67%
    07:00 +24°C° 0 mm 2 mps 746 mmHg 65%
    08:00 +26°C° 0 mm 2 mps 746 mmHg 60%
    09:00 +28°C° 0 mm 2 mps 746 mmHg 54%
    10:00 +30°C° 0 mm 2 mps 746 mmHg 49%
    11:00 +31°C° 0.1 mm 2 mps 746 mmHg 46%
    12:00 +32°C° 0.1 mm 1 mps 746 mmHg 43%
    13:00 +33°C° 0.1 mm 1 mps 745 mmHg 40%
    14:00 +33°C° 0 mm 1 mps 745 mmHg 39%
    15:00 +33°C° 0 mm 1 mps 745 mmHg 39%
    16:00 +33°C° 0 mm 1 mps 744 mmHg 38%
    17:00 +31°C° 0 mm 1 mps 744 mmHg 43%
    18:00 +29°C° 0 mm 1 mps 744 mmHg 47%
    19:00 +27°C° 0 mm 1 mps 744 mmHg 52%
    20:00 +26°C° 0 mm 1 mps 745 mmHg 55%
    21:00 +26°C° 0 mm 1 mps 745 mmHg 57%
    22:00 +25°C° 0 mm 1 mps 745 mmHg 59%
    23:00 +24°C° 0 mm 1 mps 745 mmHg 61%

    22 August, Wednesday

    Time Temperature Precipitation Wind Pressure Humidity
    00:00 +24°C° 0 mm 1 mps 745 mmHg 63%
    01:00 +23°C° 0 mm 1 mps 745 mmHg 65%
    02:00 +23°C° 0 mm 1 mps 745 mmHg 66%
    03:00 +22°C° 0 mm 1 mps 745 mmHg 68%
    04:00 +22°C° 0 mm 1 mps 745 mmHg 69%
    05:00 +23°C° 0 mm 1 mps 745 mmHg 67%
    06:00 +24°C° 0 mm 1 mps 745 mmHg 64%
    07:00 +25°C° 0 mm 1 mps 745 mmHg 62%
    08:00 +27°C° 0 mm 1 mps 745 mmHg 56%
    09:00 +29°C° 0 mm 1 mps 745 mmHg 50%
    10:00 +31°C° 0 mm 1 mps 745 mmHg 44%
    11:00 +32°C° 0 mm 1 mps 744 mmHg 41%
    12:00 +33°C° 0 mm 1 mps 744 mmHg 39%
    13:00 +34°C° 0 mm 1 mps 744 mmHg 36%
    14:00 +34°C° 0 mm 1 mps 743 mmHg 36%
    15:00 +34°C° 0 mm 1 mps 743 mmHg 36%
    16:00 +34°C° 0 mm 1 mps 743 mmHg 36%
    17:00 +32°C° 0.1 mm 1 mps 743 mmHg 40%
    18:00 +30°C° 0.1 mm 1 mps 743 mmHg 45%
    19:00 +28°C° 0.1 mm 1 mps 743 mmHg 49%
    20:00 +27°C° 0.5 mm 1 mps 743 mmHg 54%
    21:00 +26°C° 0.5 mm 1 mps 743 mmHg 58%
    22:00 +25°C° 0.5 mm 1 mps 743 mmHg 63%
    23:00 +24°C° 0.3 mm 1 mps 743 mmHg 65%
    Show more